ヘリン-ローマン-アルー第1彗星

117P/Helin-Roman-Alu 1 (2022)

English version
Home page
Updated on January 23, 2021

---------------------------------------------------------------------

・ プロフィール

・ 写真集

・ 軌道要素

Epoch 2022 June 30.0 TT = JDT 2459760.5
T 2022 July 7.72880 TT                                  MPCW
q   3.0396121            (2000.0)            P               Q
n   0.11947927     Peri.  222.94828     +0.19761435     +0.97168850
a   4.0826393      Node    58.84195     -0.85338699     +0.23553112
e   0.2554787      Incl.    8.70397     -0.48236833     -0.01861567
P   8.25
From 3432 observations 1988 Aug. 10-2015 Sept. 25, mean residual 0".7.
     Nongravitational parameters Y1 = +0.34, Y2 = +0.0248.

・ 星図

・ 光度変化

        m1 = 3.0 + 5 logΔ + 18.0 log r

---------------------------------------------------------------------

軌道要素はM.P.E.C. 2015-S97に掲載されたものです。
星図はステラナビゲータ Ver.10 (アストロアーツ) で作成したものです。
光度グラフはComet for Windowsで作成したものです。

---------------------------------------------------------------------

Copyright(C) Seiichi Yoshida (comet@aerith.net). All rights reserved.